Regional Weather Roundup
Issued by NWS

Home | Current Version | Previous Version | Text Only | Print | Product List | Glossary Off
Versions: 1 2 3 4 5 6 7 8 9 10 11 12 13 14 15 16 17 18 19 20 21 22 23 24 25 26 27

000
ASUS45 KCYS 230710
RWRWY

WYOMING REGIONAL WEATHER ROUNDUP
NATIONAL WEATHER SERVICE CHEYENNE WY
100 AM MDT WED AUG 23 2017

NOTE:  "FAIR" INDICATES FEW OR NO CLOUDS BELOW 12,000 FEET
WITH NO SIGNIFICANT WEATHER AND/OR OBSTRUCTIONS TO VISIBILITY.

WYZ001-230800-
YELLOWSTONE NATIONAL PARK

CITY           SKY/WX    TMP DP  RH WIND       PRES   REMARKS
LK YELLOWSTONE   N/A     42  32  67 CALM      30.40S
W YELLOWSTONE  NOT AVBL

$$
WYZ002>013-054>058-071-098>099-230800-
NORTHERN WYOMING

CITY           SKY/WX    TMP DP  RH WIND       PRES   REMARKS
JACKSON        FAIR      47  32  56 N6        30.30R
CODY           FAIR      65  38  36 SW5       30.18S
GREYBULL       FAIR      63  38  39 W5        30.07S
WORLAND        FAIR      58  37  45 S6        30.09S
SHERIDAN       FAIR      57  42  57 CALM      30.09S
BUFFALO        FAIR      62  33  33 SW7       30.17F
GILLETTE       FAIR      59  40  49 S5        30.11F
HULETT         FAIR      64  43  45 CALM      30.13S
NEWCASTLE      FAIR      68  45  42 SE8       30.13S

$$
WYZ014>020-022>026-101>103-230800-
CENTRAL WYOMING

CITY           SKY/WX    TMP DP  RH WIND       PRES   REMARKS
BIG PINEY      FAIR      51  31  46 NW7       30.33S
PINEDALE       FAIR      46  32  57 NW9       30.34S
DUBOIS         FAIR      54  27  35 NW12      30.33S
LANDER           N/A    N/A N/A N/A MISG      30.19R
RIVERTON       FAIR      68  31  25 E9        30.20R
CASPER         FAIR      55  40  56 NW7       30.19R
DOUGLAS        FAIR      62  50  64 E10       30.17S

$$
WYZ021-027>030-104>119-230800-
SOUTHERN WYOMING

CITY           SKY/WX    TMP DP  RH WIND       PRES   REMARKS
EVANSTON       FAIR      60  43  53 S12       30.35S
KEMMERER         N/A     57  36  44 N7        30.35F
FORT BRIDGER   FAIR      64  39  40 W14       30.36S
ROCK SPRINGS   FAIR      64  36  35 W9        30.30S
DIXON          FAIR      53  38  56 E5        30.35R
RAWLINS        NOT AVBL
SARATOGA       FAIR      54  36  50 CALM      30.34R
LARAMIE        FAIR      51  46  83 S7        30.33R
CHEYENNE       FAIR      56  52  86 SW5       30.24F
TORRINGTON     FAIR      61  52  72 E9        30.13S
PINE BLUFFS    FAIR      54  50  87 N3        30.19S

$$




USA.gov is the U.S. government's official web portal to all federal, state and local government web resources and services.